Total_Precipitation_Accumulation
0.00 0.00 0.00 0.00 0.00 0.00 0.02 0.06 0.10 0.06 0.02 0.01 0.02 0.03 0.04 0.04 0.03 0.05 0.04 0.04 0.05 0.08 0.10 0.11 0.11 0.13 0.16 0.19 0.24 0.32 0.40 0.46 0.51 0.56 0.62 0.66 0.69 0.76
0.00 0.00 0.00 0.00 0.00 0.00 0.01 0.02 0.06 0.08 0.04 0.01 0.01 0.03 0.06 0.06 0.05 0.06 0.07 0.09 0.11 0.12 0.13 0.14 0.17 0.21 0.23 0.24 0.25 0.29 0.37 0.45 0.49 0.53 0.57 0.63 0.67 0.73
0.00 0.00 0.00 0.00 0.00 0.00 0.00 0.01 0.01 0.04 0.05 0.01 0.00 0.01 0.04 0.05 0.05 0.06 0.06 0.06 0.07 0.09 0.13 0.15 0.17 0.22 0.26 0.28 0.29 0.31 0.36 0.43 0.48 0.53 0.59 0.64 0.68 0.69
0.00 0.00 0.00 0.00 0.00 0.00 0.00 0.00 0.00 0.02 0.06 0.06 0.01 0.00 0.01 0.03 0.04 0.04 0.05 0.07 0.06 0.07 0.11 0.14 0.17 0.21 0.25 0.27 0.29 0.31 0.34 0.38 0.42 0.46 0.49 0.54 0.59 0.65
0.00 0.00 0.00 0.00 0.00 0.00 0.00 0.00 0.01 0.02 0.05 0.09 0.05 0.02 0.02 0.02 0.04 0.03 0.04 0.05 0.06 0.07 0.09 0.11 0.16 0.21 0.25 0.27 0.28 0.28 0.29 0.31 0.35 0.39 0.43 0.49 0.54 0.59
0.00 0.00 0.00 0.00 0.00 0.00 0.00 0.02 0.04 0.05 0.06 0.10 0.11 0.09 0.06 0.03 0.05 0.06 0.05 0.05 0.05 0.05 0.06 0.07 0.09 0.12 0.14 0.17 0.20 0.22 0.23 0.28 0.34 0.42 0.47 0.52 0.54 0.55
0.00 0.00 0.00 0.00 0.00 0.01 0.03 0.05 0.06 0.09 0.16 0.21 0.18 0.13 0.08 0.07 0.07 0.07 0.09 0.07 0.04 0.04 0.04 0.03 0.04 0.05 0.06 0.09 0.15 0.20 0.25 0.34 0.45 0.57 0.68 0.75 0.75 0.73
0.00 0.00 0.00 0.00 0.00 0.02 0.04 0.06 0.12 0.20 0.27 0.28 0.22 0.15 0.07 0.05 0.07 0.12 0.17 0.19 0.13 0.04 0.06 0.04 0.03 0.04 0.07 0.12 0.19 0.26 0.33 0.41 0.49 0.58 0.66 0.69 0.72 0.76
0.00 0.00 0.00 0.00 0.01 0.01 0.02 0.08 0.13 0.18 0.20 0.19 0.15 0.09 0.09 0.12 0.21 0.29 0.25 0.23 0.14 0.04 0.06 0.06 0.04 0.06 0.08 0.14 0.25 0.29 0.36 0.44 0.51 0.56 0.60 0.62 0.62 0.64
0.00 0.00 0.00 0.01 0.02 0.05 0.11 0.16 0.10 0.06 0.05 0.05 0.08 0.12 0.15 0.15 0.20 0.26 0.23 0.18 0.09 0.04 0.07 0.14 0.10 0.10 0.09 0.13 0.23 0.25 0.29 0.38 0.47 0.52 0.52 0.51 0.50 0.52
0.00 0.01 0.03 0.03 0.05 0.16 0.24 0.20 0.09 0.02 0.02 0.06 0.12 0.11 0.09 0.07 0.10 0.26 0.36 0.36 0.22 0.06 0.06 0.12 0.10 0.11 0.15 0.17 0.22 0.26 0.27 0.33 0.41 0.45 0.43 0.41 0.41 0.45
0.02 0.02 0.03 0.05 0.12 0.23 0.21 0.16 0.08 0.05 0.09 0.06 0.03 0.01 0.01 0.02 0.08 0.23 0.56 0.75 0.48 0.23 0.09 0.20 0.22 0.27 0.37 0.21 0.21 0.24 0.25 0.30 0.35 0.37 0.38 0.38 0.38 0.39
0.06 0.03 0.02 0.09 0.19 0.19 0.12 0.06 0.08 0.15 0.11 0.03 0.01 0.01 0.01 0.02 0.04 0.08 0.29 0.75 0.87 0.49 0.16 0.41 0.48 0.33 0.43 0.31 0.24 0.26 0.34 0.46 0.51 0.50 0.48 0.44 0.40 0.40
0.07 0.04 0.06 0.15 0.13 0.07 0.03 0.04 0.10 0.09 0.03 0.03 0.03 0.03 0.03 0.03 0.04 0.05 0.09 0.23 0.50 0.60 0.35 0.53 0.70 0.49 0.52 0.43 0.34 0.34 0.39 0.61 0.86 0.90 0.84 0.72 0.58 0.50
0.08 0.12 0.13 0.08 0.03 0.01 0.01 0.03 0.03 0.02 0.06 0.12 0.10 0.06 0.04 0.04 0.06 0.08 0.09 0.13 0.20 0.26 0.31 0.42 0.61 0.58 0.61 0.61 0.51 0.45 0.55 0.67 1.01 1.28 1.18 0.94 0.71 0.56
0.12 0.13 0.05 0.01 0.00 0.00 0.01 0.00 0.01 0.02 0.11 0.20 0.16 0.09 0.05 0.06 0.09 0.16 0.25 0.27 0.32 0.28 0.29 0.36 0.48 0.60 0.57 0.50 0.61 0.61 0.74 1.05 1.26 1.46 1.30 1.02 0.79 0.63
0.13 0.04 0.00 0.00 0.01 0.01 0.00 0.00 0.01 0.02 0.06 0.11 0.16 0.15 0.10 0.10 0.12 0.21 0.37 0.46 0.49 0.43 0.39 0.33 0.30 0.34 0.42 0.47 0.52 0.58 0.77 1.03 1.27 1.39 1.14 0.94 0.91 0.81
0.05 0.01 0.01 0.02 0.02 0.02 0.02 0.03 0.02 0.04 0.09 0.17 0.20 0.21 0.22 0.22 0.23 0.27 0.42 0.53 0.53 0.48 0.45 0.38 0.31 0.27 0.28 0.33 0.53 0.76 0.83 1.01 1.13 1.06 0.74 0.64 0.81 0.78
0.01 0.03 0.04 0.03 0.03 0.03 0.05 0.07 0.07 0.06 0.14 0.24 0.29 0.30 0.31 0.29 0.33 0.38 0.45 0.48 0.46 0.42 0.34 0.27 0.27 0.31 0.32 0.30 0.33 0.62 0.88 0.88 0.77 0.71 0.60 0.57 0.78 0.78
0.03 0.05 0.04 0.03 0.04 0.06 0.08 0.11 0.12 0.11 0.16 0.25 0.30 0.33 0.36 0.39 0.40 0.42 0.46 0.47 0.40 0.26 0.14 0.09 0.14 0.27 0.42 0.47 0.46 0.61 0.68 0.69 0.57 0.60 0.58 0.52 0.62 0.61
0.04 0.04 0.03 0.04 0.06 0.09 0.11 0.13 0.17 0.21 0.26 0.34 0.36 0.38 0.41 0.44 0.42 0.40 0.38 0.30 0.21 0.14 0.09 0.07 0.11 0.20 0.27 0.23 0.26 0.41 0.54 0.57 0.51 0.54 0.46 0.34 0.34 0.36
0.04 0.04 0.03 0.04 0.08 0.12 0.14 0.17 0.20 0.23 0.28 0.33 0.37 0.41 0.43 0.45 0.41 0.32 0.23 0.17 0.13 0.12 0.10 0.06 0.05 0.06 0.08 0.12 0.18 0.27 0.34 0.33 0.29 0.25 0.29 0.33 0.39 0.65
0.04 0.05 0.05 0.07 0.11 0.14 0.17 0.18 0.22 0.26 0.33 0.39 0.41 0.39 0.37 0.31 0.23 0.18 0.15 0.14 0.13 0.10 0.07 0.05 0.04 0.05 0.07 0.09 0.13 0.16 0.18 0.17 0.14 0.17 0.34 0.37 0.43 0.58